timestamp,wind_dir_avg,wind_spd_avg,wind_spd_max_dir,wind_spd_gust,battery_voltage,lat,long
2021-10-16 00:04:00+00:00,346.0,7.03,351.0,8.15,12.65,47.59359,-54.27349
2021-10-16 00:14:01+00:00,351.0,10.41,344.0,13.08,12.65,47.59359,-54.27349
2021-10-16 00:24:01+00:00,343.0,9.29,342.0,12.14,12.65,47.59359,-54.27349
2021-10-16 00:34:01+00:00,352.0,7.87,355.0,8.82,12.65,47.59359,-54.27349
2021-10-16 00:44:01+00:00,346.0,9.11,344.0,10.05,12.65,47.59359,-54.27349
2021-10-16 00:54:01+00:00,357.0,8.62,348.0,10.34,12.65,47.59359,-54.27349
2021-10-16 01:04:01+00:00,15.0,7.35,25.0,9.23,12.65,47.59359,-54.27349
2021-10-16 01:14:01+00:00,351.0,7.25,347.0,8.19,12.57,47.59359,-54.27349
2021-10-16 01:24:01+00:00,356.0,9.25,3.0,10.77,12.57,47.59359,-54.27349
2021-10-16 01:34:01+00:00,356.0,8.34,359.0,9.88,12.57,47.59359,-54.27349
2021-10-16 01:44:01+00:00,1.0,8.89,8.0,10.48,12.57,47.59359,-54.27349
2021-10-16 01:54:01+00:00,357.0,8.51,355.0,9.62,12.57,47.59359,-54.27349
2021-10-16 02:04:01+00:00,352.0,9.09,358.0,10.29,12.57,47.59359,-54.27349
2021-10-16 02:14:01+00:00,339.0,8.29,336.0,9.27,12.57,47.59359,-54.27349
2021-10-16 02:24:01+00:00,358.0,8.79,359.0,10.25,12.57,47.59359,-54.27349
2021-10-16 02:34:01+00:00,350.0,7.87,343.0,9.45,12.57,47.59359,-54.27349
2021-10-16 02:44:01+00:00,356.0,6.93,359.0,8.12,12.57,47.59359,-54.27349
2021-10-16 02:54:01+00:00,341.0,7.39,339.0,8.84,12.57,47.59359,-54.27349
2021-10-16 03:04:01+00:00,356.0,7.21,355.0,8.36,12.57,47.59359,-54.27349
2021-10-16 03:14:01+00:00,349.0,9.25,358.0,10.58,12.57,47.59359,-54.27349
2021-10-16 03:24:01+00:00,342.0,9.96,341.0,11.25,12.57,47.59359,-54.27349
2021-10-16 03:34:01+00:00,345.0,8.13,344.0,8.91,12.57,47.59359,-54.27349
2021-10-16 03:44:01+00:00,345.0,8.34,344.0,9.81,12.57,47.59359,-54.27349
2021-10-16 03:54:01+00:00,341.0,7.09,340.0,8.26,12.57,47.59359,-54.27349
2021-10-16 04:04:01+00:00,348.0,8.43,345.0,9.97,12.57,47.59359,-54.27349
2021-10-16 04:14:01+00:00,349.0,7.9,348.0,10.04,12.57,47.59359,-54.27349
2021-10-16 04:24:01+00:00,346.0,6.94,341.0,8.28,12.57,47.59359,-54.27349
2021-10-16 04:34:01+00:00,350.0,9.98,349.0,10.97,12.57,47.59359,-54.27349
2021-10-16 04:44:01+00:00,351.0,10.31,354.0,11.75,12.57,47.59359,-54.27349
2021-10-16 04:54:01+00:00,352.0,7.59,348.0,8.84,12.57,47.59359,-54.27349
2021-10-16 05:04:01+00:00,354.0,9.78,0.0,10.94,12.57,47.59359,-54.27349
2021-10-16 05:14:01+00:00,352.0,10.35,359.0,12.21,12.57,47.59359,-54.27349
2021-10-16 05:24:01+00:00,352.0,9.46,350.0,10.49,12.57,47.59359,-54.27349
2021-10-16 05:34:01+00:00,335.0,9.41,331.0,10.59,12.57,47.59359,-54.27349
2021-10-16 05:44:01+00:00,342.0,10.62,346.0,12.25,12.57,47.59359,-54.27349
2021-10-16 05:54:01+00:00,340.0,8.76,337.0,10.89,12.57,47.59359,-54.27349
2021-10-16 06:04:01+00:00,342.0,9.89,342.0,11.06,12.57,47.59359,-54.27349
2021-10-16 06:14:01+00:00,342.0,8.12,340.0,10.69,12.57,47.59359,-54.27349
2021-10-16 06:24:01+00:00,344.0,9.69,343.0,11.48,12.57,47.59359,-54.27349
2021-10-16 06:34:01+00:00,339.0,10.22,344.0,12.64,12.57,47.59359,-54.27349
2021-10-16 06:44:01+00:00,342.0,9.1,338.0,10.97,12.57,47.59359,-54.27349
2021-10-16 06:54:01+00:00,338.0,9.01,334.0,10.98,12.57,47.59359,-54.27349
2021-10-16 07:04:01+00:00,347.0,8.64,354.0,9.74,12.57,47.59359,-54.27349
2021-10-16 07:14:01+00:00,349.0,10.41,350.0,11.2,12.49,47.59359,-54.27349
2021-10-16 07:24:01+00:00,341.0,8.42,341.0,9.97,12.49,47.59359,-54.27349
2021-10-16 07:34:01+00:00,330.0,7.09,332.0,8.13,12.49,47.59359,-54.27349
2021-10-16 07:44:01+00:00,343.0,8.41,339.0,10.13,12.49,47.59359,-54.27349
2021-10-16 07:54:01+00:00,344.0,8.57,345.0,10.29,12.49,47.59359,-54.27349
2021-10-16 08:04:01+00:00,343.0,7.81,343.0,9.89,12.49,47.59359,-54.27349
2021-10-16 08:14:01+00:00,344.0,8.98,347.0,10.52,12.49,47.59359,-54.27349
2021-10-16 08:24:01+00:00,341.0,9.69,342.0,10.92,12.49,47.59359,-54.27349
2021-10-16 08:34:01+00:00,343.0,8.44,351.0,9.74,12.49,47.59359,-54.27349
2021-10-16 08:44:01+00:00,352.0,10.93,350.0,13.07,12.49,47.59359,-54.27349
2021-10-16 08:54:01+00:00,343.0,9.77,340.0,11.58,12.49,47.59359,-54.27349
2021-10-16 09:04:01+00:00,350.0,8.53,353.0,10.72,12.49,47.59359,-54.27349
2021-10-16 09:14:00+00:00,350.0,9.33,348.0,11.11,12.41,47.59359,-54.27349
2021-10-16 09:24:00+00:00,350.0,8.79,343.0,10.62,12.41,47.59359,-54.27349
2021-10-16 09:34:00+00:00,349.0,8.55,346.0,10.93,12.41,47.59359,-54.27349
2021-10-16 09:44:00+00:00,352.0,7.7,356.0,8.65,12.41,47.59359,-54.27349
2021-10-16 09:54:00+00:00,352.0,8.51,343.0,9.82,12.41,47.59359,-54.27349
2021-10-16 10:04:00+00:00,4.0,9.01,1.0,10.75,12.41,47.59359,-54.27349
2021-10-16 10:14:00+00:00,359.0,8.6,0.0,9.81,12.41,47.59359,-54.27349
2021-10-16 10:24:00+00:00,357.0,7.25,358.0,8.47,12.41,47.59359,-54.27349
2021-10-16 10:34:00+00:00,7.0,7.95,7.0,9.15,12.41,47.59359,-54.27349
2021-10-16 10:44:00+00:00,12.0,9.1,15.0,10.75,12.41,47.59359,-54.27349
2021-10-16 10:54:00+00:00,359.0,9.85,0.0,11.82,12.41,47.59359,-54.27349
2021-10-16 11:04:00+00:00,8.0,10.67,4.0,12.48,12.41,47.59359,-54.27349
2021-10-16 11:14:01+00:00,3.0,9.82,4.0,12.11,12.89,47.59359,-54.27349
2021-10-16 11:24:01+00:00,359.0,9.13,338.0,11.57,12.89,47.59359,-54.27349
2021-10-16 11:34:01+00:00,4.0,9.18,17.0,10.84,12.89,47.59359,-54.27349
2021-10-16 11:44:01+00:00,0.0,9.39,3.0,10.76,12.89,47.59359,-54.27349
2021-10-16 11:54:01+00:00,7.0,10.39,14.0,12.15,12.89,47.59359,-54.27349
2021-10-16 12:04:01+00:00,8.0,9.98,2.0,11.54,12.89,47.59359,-54.27349
2021-10-16 12:14:01+00:00,3.0,9.5,2.0,11.02,13.37,47.59359,-54.27349
2021-10-16 12:24:01+00:00,4.0,10.67,6.0,12.93,13.37,47.59359,-54.27349
2021-10-16 12:34:01+00:00,7.0,8.64,5.0,10.25,13.37,47.59359,-54.27349
2021-10-16 12:44:01+00:00,4.0,10.01,1.0,11.63,13.37,47.59359,-54.27349
2021-10-16 12:54:01+00:00,10.0,8.85,15.0,10.5,13.37,47.59359,-54.27349
2021-10-16 13:04:01+00:00,4.0,10.17,2.0,12.0,13.37,47.59359,-54.27349
2021-10-16 13:14:01+00:00,4.0,10.97,0.0,12.71,13.53,47.59359,-54.27349
2021-10-16 13:24:01+00:00,16.0,13.26,15.0,15.52,13.53,47.59359,-54.27349
2021-10-16 13:34:01+00:00,3.0,11.06,357.0,12.67,13.53,47.59359,-54.27349
2021-10-16 13:44:01+00:00,359.0,11.7,7.0,12.97,13.53,47.59359,-54.27349
2021-10-16 13:54:01+00:00,359.0,14.03,358.0,17.1,13.53,47.59359,-54.27349
2021-10-16 14:04:01+00:00,356.0,14.03,342.0,16.4,13.53,47.59359,-54.27349
2021-10-16 14:14:01+00:00,3.0,12.73,0.0,14.79,13.68,47.59359,-54.27349
2021-10-16 14:24:01+00:00,355.0,12.84,349.0,15.29,13.68,47.59359,-54.27349
2021-10-16 14:34:01+00:00,356.0,12.98,341.0,14.46,13.68,47.59359,-54.27349
2021-10-16 14:44:01+00:00,359.0,10.39,355.0,11.58,13.68,47.59359,-54.27349
2021-10-16 14:54:01+00:00,1.0,11.61,358.0,14.58,13.68,47.59359,-54.27349
2021-10-16 15:04:01+00:00,4.0,9.87,3.0,11.55,13.68,47.59359,-54.27349
2021-10-16 15:14:01+00:00,1.0,12.17,3.0,14.84,14.24,47.59359,-54.27349
2021-10-16 15:24:01+00:00,7.0,10.84,14.0,13.59,14.24,47.59359,-54.27349
2021-10-16 15:34:01+00:00,358.0,12.74,5.0,14.99,14.24,47.59359,-54.27349
2021-10-16 15:44:01+00:00,358.0,11.54,359.0,13.54,14.24,47.59359,-54.27349
2021-10-16 15:54:01+00:00,358.0,11.06,344.0,13.46,14.24,47.59359,-54.27349
2021-10-16 16:04:01+00:00,1.0,12.78,355.0,15.02,14.24,47.59359,-54.27349
2021-10-16 16:14:01+00:00,356.0,11.35,345.0,14.52,13.84,47.59359,-54.27349
2021-10-16 16:24:01+00:00,2.0,12.26,5.0,13.76,13.84,47.59359,-54.27349
2021-10-16 16:34:01+00:00,3.0,11.9,1.0,13.18,13.84,47.59359,-54.27349
2021-10-16 16:44:01+00:00,7.0,11.02,8.0,12.96,13.84,47.59359,-54.27349
2021-10-16 16:54:01+00:00,2.0,11.43,2.0,14.04,13.84,47.59359,-54.27349
2021-10-16 17:04:01+00:00,352.0,12.62,338.0,16.77,13.84,47.59359,-54.27349
2021-10-16 17:14:01+00:00,353.0,12.28,339.0,13.75,14.24,47.59359,-54.27349
2021-10-16 17:24:01+00:00,7.0,11.78,6.0,13.67,14.24,47.59359,-54.27349
2021-10-16 17:34:01+00:00,356.0,13.25,351.0,14.42,14.24,47.59359,-54.27349
2021-10-16 17:44:01+00:00,5.0,13.08,7.0,14.83,14.24,47.59359,-54.27349
2021-10-16 17:54:01+00:00,1.0,11.92,2.0,14.32,14.24,47.59359,-54.27349
2021-10-16 18:04:01+00:00,5.0,11.29,4.0,12.7,14.24,47.59359,-54.27349
2021-10-16 19:14:01+00:00,0.0,12.17,357.0,14.01,13.84,47.59359,-54.27349
2021-10-16 19:24:01+00:00,353.0,11.72,341.0,14.34,13.84,47.59359,-54.27349
2021-10-16 19:34:01+00:00,358.0,11.26,2.0,13.21,13.84,47.59359,-54.27349
2021-10-16 19:44:01+00:00,346.0,11.14,337.0,14.69,13.84,47.59359,-54.27349
2021-10-16 19:54:01+00:00,353.0,11.48,338.0,14.15,13.84,47.59359,-54.27349
2021-10-16 20:04:01+00:00,6.0,12.36,2.0,14.04,13.84,47.59359,-54.27349
2021-10-16 20:14:01+00:00,354.0,9.68,356.0,11.13,13.37,47.59359,-54.27349
2021-10-16 20:24:01+00:00,10.0,11.17,1.0,12.85,13.37,47.59359,-54.27349
2021-10-16 20:34:01+00:00,347.0,11.06,335.0,12.43,13.37,47.59359,-54.27349
2021-10-16 20:44:01+00:00,1.0,11.38,4.0,12.98,13.37,47.59359,-54.27349
2021-10-16 20:54:01+00:00,349.0,11.28,337.0,13.35,13.37,47.59359,-54.27349
2021-10-16 21:04:01+00:00,5.0,10.81,9.0,13.23,13.37,47.59359,-54.27349
2021-10-16 21:14:01+00:00,3.0,10.01,5.0,11.63,12.81,47.59359,-54.27349
2021-10-16 21:24:01+00:00,4.0,9.17,13.0,11.28,12.81,47.59359,-54.27349
2021-10-16 21:34:01+00:00,353.0,6.71,339.0,9.2,12.81,47.59359,-54.27349
2021-10-16 21:44:01+00:00,340.0,9.92,328.0,11.84,12.81,47.59359,-54.27349
2021-10-16 21:54:01+00:00,357.0,12.67,353.0,13.98,12.81,47.59359,-54.27349
2021-10-16 22:04:01+00:00,3.0,10.27,357.0,11.62,12.81,47.59359,-54.27349
2021-10-16 22:14:01+00:00,347.0,11.37,341.0,13.19,12.65,47.59359,-54.27349
2021-10-16 22:24:01+00:00,0.0,9.43,337.0,11.54,12.65,47.59359,-54.27349
2021-10-16 22:34:01+00:00,5.0,10.44,1.0,12.2,12.65,47.59359,-54.27349
2021-10-16 22:44:01+00:00,2.0,7.79,1.0,9.09,12.65,47.59359,-54.27349
2021-10-16 22:54:01+00:00,332.0,10.03,331.0,12.15,12.65,47.59359,-54.27349
2021-10-16 23:04:01+00:00,357.0,9.16,359.0,10.74,12.65,47.59359,-54.27349
2021-10-16 23:14:00+00:00,341.0,10.61,333.0,14.1,12.65,47.59359,-54.27349
2021-10-16 23:24:00+00:00,341.0,10.18,334.0,12.44,12.65,47.59359,-54.27349
2021-10-16 23:34:00+00:00,351.0,9.46,328.0,10.84,12.65,47.59359,-54.27349
2021-10-16 23:44:00+00:00,349.0,7.52,327.0,9.25,12.65,47.59359,-54.27349
2021-10-16 23:54:00+00:00,333.0,9.15,335.0,10.43,12.65,47.59359,-54.27349
